This demonstration page uses our WeatherBlox Daily Observations layout. Learn more.

Left ArrowRight Arrow

36.17497, -115.13722

Hourly Observations for January 4, 2016

Temp ( °F °C ) Dew Point ( °F °C ) Humidity (%) Winds ( mph kmh ) Pressure ( in mb ) Visibility ( mi km ) Precip ( " mm )
12:53 am 00:53 Mostly Clear 46 7.8 24 -4.4 42 42 NW 6 9 29.95 1014 10 16 N/A
1:53 am 01:53 Mostly Cloudy 45 7.2 25 -3.9 46 46 WNW 7 11 29.94 1014 10 16 N/A
2:53 am 02:53 Cloudy 46 7.8 24 -4.4 42 42 NW 5 7 29.92 1013 10 16 N/A
3:53 am 03:53 Mostly Cloudy 46 7.8 25 -3.9 44 44 N N/A 29.91 1013 10 16 N/A
4:53 am 04:53 Cloudy 46 7.8 25 -3.9 44 44 SW 5 7 29.91 1013 10 16 N/A
5:53 am 05:53 Cloudy 48 8.9 25 -3.9 41 41 N N/A 29.92 1013 10 16 N/A
6:53 am 06:53 Cloudy 47 8.3 26 -3.3 44 44 WNW 5 7 29.93 1014 10 16 N/A
7:53 am 07:53 Cloudy with Light Rain 47 8.3 37 2.8 69 69 N N/A 29.94 1014 10 16 N/A
8:53 am 08:53 Cloudy 48 8.9 41 5 77 77 W 6 9 29.95 1014 10 16 0.01 0.25
9:53 am 09:53 Cloudy 50 10 41 5 71 71 WSW 5 7 29.96 1015 10 16 0.01 0.25
10:53 am 10:53 Cloudy 51 10.6 43 6.1 74 74 N N/A 29.94 1014 10 16 N/A
11:53 am 11:53 Cloudy 52 11.1 43 6.1 72 72 N N/A 29.91 1013 10 16 N/A
12:53 pm 12:53 Cloudy 53 11.7 42 5.6 66 66 N N/A 29.89 1012 10 16 N/A
1:53 pm 13:53 Cloudy 54 12.2 38 3.3 55 55 N N/A 29.88 1012 10 16 N/A
2:53 pm 14:53 Cloudy with Light Rain 53 11.7 39 3.9 59 59 NW 3 6 29.89 1012 10 16 N/A
3:53 pm 15:53 Cloudy 53 11.7 39 3.9 59 59 WSW 5 7 29.89 1012 10 16 N/A
4:53 pm 16:53 Cloudy 52 11.1 39 3.9 61 61 SW 3 6 29.91 1013 10 16 N/A
5:53 pm 17:53 Cloudy 50 10 40 4.4 68 68 SSE 5 7 29.93 1013 10 16 N/A
6:53 pm 18:53 Cloudy 50 10 41 5 71 71 SSW 6 9 29.94 1014 10 16 N/A
7:53 pm 19:53 Cloudy 50 10 41 5 71 71 WSW 3 6 29.95 1014 10 16 N/A
8:53 pm 20:53 Cloudy 49 9.4 41 5 74 74 W 6 9 29.96 1014 10 16 N/A
9:53 pm 21:53 Cloudy 49 9.4 41 5 74 74 WSW 5 7 29.96 1015 10 16 N/A
10:53 pm 22:53 Cloudy 45 7.2 41 5 86 86 SE 3 6 29.97 1015 10 16 N/A
11:53 pm 23:53 Cloudy 47 8.3 42 5.6 83 83 SE 3 6 29.96 1014 10 16 N/A

Powered by AerisWeather